sat.trackr.live / text

‹ back to catalog

STARLINK-4571

NORAD 53688 · 2022-105AS

PAYLOAD ACTIVE UNKNOWN

§ Identity

Operator
Country
US
Launch date
2022-08-31
Launch site
AFWTR
Launch vehicle
Mass (kg)
RCS (m²)

Purposes: comms

External: N2YO · Heavens-Above · Gunter

§ Orbital elements

Epoch: 2026-09-20T13:22:23.636928Z

Period
95.64 min
Inclination
97.2839°
Eccentricity
0.0002110
Mean motion
15.05652266 rev/d
Perigee alt
548.0 km
Apogee alt
551.0 km
Semi-major
6,927.6 km
B*
2.3057e-5
RAAN
137.3142°
Arg perigee
71.1812°
Mean anomaly
288.9645°
Rev number
22,255

§ Raw data

STARLINK-45711 53688U 22105AS  26263.55721802  .00000276  00000+0  23057-4 0  99942 53688  97.2839 137.3142 0002110  71.1812 288.9645 15.05652266222551

JSON: /api/v1/satellites/53688 · /tle

For live sub-satellite position, see the globe view (requires WebGL).

§ Visibility from observer

Set your observer location to see the next 7 days of passes ≥ 10°. The values pass through the URL so the page stays shareable.

No JS? Fill the form by hand. The geolocation button needs JavaScript.